Location: Dötzum
(52.0808°N, 9.8063°E)
Time: 06:29:35
(UTC+00:00)

GP-B - Pass Details

Date: 27 May 2022
Orbit: 630 x 634 km, 89.8° (Epoch: 28 June)

Event Time Altitude Azimuth Distance (km) Brightness Sun altitude
Rises 01:10:22 0° 354° (N) 2,943 7.6 -12.6°
Reaches altitude 10° 01:12:45 10° 345° (NNW) 2,029 6.4 -12.5°
Maximum altitude 01:16:45 34° 282° (WNW) 1,053 4.1 -12.2°
Enters shadow 01:19:38 16° 225° (SW) 1,627 4.6 -12.0°
